[[{"header":{"parameterUnit":"m.s-1","parameterCategory":1,"la1":30.2992,"la2":30.254,"lo1":-89.0895,"lo2":-89.0443,"dy":0.0025,"dx":0.0025,"nx":19,"ny":19,"refTime":"2026-04-26T03:00:00:Z","depth":0,"parameterNumber":2,"parameterNumberName":"U-component_of_WINDS"},"data":[0,0,0,0.1662,0.1665,0.1839,0.184,0.203,0.2031,0,0,0,0,0,0,0,0,0,0,0,0.1589,0.159,0.1662,0.1665,0.1839,0.184,0.203,0.2031,0,0,0,0,0,0,0,0,0,0,0,0.1589,0.159,0.1591,0.1666,0.1839,0.184,0.2029,0.191,0,0,0,0,0,0,0,0,0,0,0.1747,0.1659,0.159,0.1591,0.1667,0.1839,0.184,0.1905,0.1917,0.1937,0,0.1947,0,0.1992,0.2042,0.2042,0,0,0,0.1682,0.1649,0.1714,0.1591,0.1668,0.1838,0.1765,0.1912,0.1926,0.1953,0.195,0.1958,0.1995,0.2043,0.2044,0.2094,0.2094,0,0,0.1672,0.161,0.1704,0.1722,0.1692,0.176,0.177,0.1921,0.1915,0.1951,0.1963,0.1998,0.2044,0.2045,0.2095,0.2094,0,0,0,0.1633,0.1603,0.1665,0.1713,0.1747,0.1764,0.1777,0.1908,0.1934,0.1966,0.2,0.2045,0.2047,0.2096,0.2095,0.2005,0,0,0,0.1628,0.158,0.166,0.1624,0.1744,0.183,0.1759,0.1923,0.1942,0.1999,0.2045,0.2048,0.2096,0.2095,0.2009,0.1973,0,0,0,0.1585,0.1576,0.1593,0.162,0.1693,0.1829,0.1863,0.1929,0.1962,0.2043,0.2049,0.2097,0.2095,0.2013,0.1979,0.1965,0,0,0,0.1522,0.1515,0.1591,0.1597,0.1691,0.1772,0.1863,0.1928,0.1986,0.2046,0.2096,0.2095,0.2014,0.1983,0.1968,0.1939,0.1922,0,0,0.1479,0.1508,0.1516,0.1589,0.164,0.1751,0.179,0.1904,0.197,0.2049,0.2051,0.2008,0.1979,0.1966,0.1855,0.184,0,0,0,0.1481,0.1485,0.1513,0.1563,0.1648,0.1717,0.1831,0.1872,0.1942,0.1997,0.2003,0.1988,0.1982,0.1971,0.1959,0.1957,0.2088,0.2088,0.2088,0.133,0.1412,0.143,0.1531,0.1579,0.1694,0.1741,0.1817,0.1889,0.1888,0.1911,0.1834,0.1818,0.181,0.1806,0.1906,0.1906,0.1905,0.1905,0.1271,0.1289,0.138,0.143,0.1516,0.1559,0.1669,0.1718,0.177,0.1824,0.1823,0.1872,0.1792,0.1793,0.1899,0.19,0.1901,0.1901,0.1902,0.1179,0.1201,0.125,0.1329,0.1381,0.1486,0.153,0.1609,0.1684,0.1683,0.1714,0.1715,0.1724,0.1693,0.1692,0.1692,0.1692,0.1692,0.1692,0.1061,0.112,0.1146,0.1232,0.1273,0.1337,0.1451,0.1495,0.1562,0.1616,0.1617,0.1684,0.177,0.1787,0.1688,0.1688,0.1689,0.1689,0.169,0.0965,0.0998,0.1039,0.1079,0.1186,0.1229,0.133,0.1409,0.1457,0.1475,0.1544,0.1595,0.1631,0.1641,0.1656,0.1529,0.1529,0.1529,0.1529,0.0883,0.0909,0.0966,0.1025,0.1092,0.1185,0.1226,0.1314,0.1411,0.1445,0.1475,0.1503,0.1509,0.1541,0.1554,0.1568,0.1422,0.1422,0.1422,0.0826,0.0862,0.0881,0.0974,0.1062,0.1136,0.1176,0.124,0.1357,0.1419,0.1472,0.1476,0.1521,0.1533,0.1592,0.161,0.1639,0,0]},{"header":{"parameterUnit":"m.s-1","parameterCategory":1,"la1":30.2992,"la2":30.254,"lo1":-89.0895,"lo2":-89.0443,"dy":0.0025,"dx":0.0025,"nx":19,"ny":19,"refTime":"2026-04-26T03:00:00:Z","depth":0,"parameterNumber":3,"parameterNumberName":"V-component_of_WINDS"},"data":[0,0,0,3.0953,3.0951,3.0854,3.0854,3.0715,3.0714,0,0,0,0,0,0,0,0,0,0,0,3.0976,3.0975,3.0953,3.095,3.0854,3.0854,3.0716,3.0714,0,0,0,0,0,0,0,0,0,0,0,3.0977,3.0975,3.0974,3.095,3.0854,3.0854,3.0716,3.0793,0,0,0,0,0,0,0,0,0,0,3.0889,3.0906,3.0976,3.0974,3.095,3.0855,3.0854,3.0797,3.0788,3.0754,0,3.0725,0,3.0718,3.0704,3.0704,0,0,0,3.0953,3.0913,3.0893,3.0974,3.0949,3.0855,3.0898,3.0792,3.0782,3.0742,3.0724,3.0719,3.0716,3.0703,3.0702,3.0505,3.0504,0,0,3.0958,3.0955,3.09,3.0886,3.0905,3.0902,3.0895,3.0786,3.0764,3.0723,3.0716,3.0713,3.0702,3.0701,3.0506,3.0505,0,0,0,3.0972,3.0958,3.0941,3.0892,3.0876,3.0899,3.0892,3.0769,3.0764,3.0714,3.0712,3.0701,3.07,3.0507,3.0506,3.0451,0,0,0,3.0975,3.0966,3.0943,3.0939,3.0878,3.0822,3.0877,3.0771,3.0759,3.0712,3.0701,3.0698,3.0508,3.0506,3.0455,3.0424,0,0,0,3.0984,3.0967,3.0952,3.094,3.0899,3.0824,3.0813,3.0769,3.0757,3.0703,3.0698,3.0509,3.0507,3.0459,3.043,3.037,0,0,0,3.0991,3.0903,3.0951,3.0852,3.09,3.0793,3.0813,3.0733,3.0681,3.0701,3.0508,3.0506,3.046,3.0434,3.0374,3.0318,3.0295,0,0,3.0878,3.0889,3.0831,3.0872,3.0756,3.0808,3.0683,3.0636,3.0632,3.0546,3.0542,3.0454,3.0431,3.0371,3.0173,3.0155,0,0,0,3.0794,3.0752,3.0722,3.0675,3.064,3.0606,3.058,3.0562,3.0491,3.0589,3.0417,3.0404,3.0369,3.0342,3.0326,3.0296,3.0494,3.0494,3.0495,3.0625,3.0629,3.0533,3.0525,3.0478,3.0453,3.0414,3.0386,3.04,3.036,3.0333,3.0213,3.0182,3.017,3.0138,3.0306,3.0306,3.0306,3.0306,3.0458,3.0398,3.0424,3.0339,3.0342,3.0269,3.0241,3.0255,3.0185,3.0233,3.0202,3.0252,3.015,3.0122,3.0301,3.0302,3.0303,3.0303,3.0303,3.0345,3.0317,3.0301,3.0233,3.0179,3.0174,3.0107,3.0112,3.0115,3.0085,3.0056,3.0057,3.0056,3.0072,3.0072,3.0071,3.0071,3.007,3.007,3.0234,3.0218,3.0163,3.0121,3.0091,3.0052,3.0027,2.9996,2.9963,2.9971,2.9971,2.9988,3.0142,3.0178,3.0064,3.0065,3.0066,3.0066,3.0067,3.0057,3.0099,3.0014,2.9985,2.9935,2.988,2.989,2.9827,2.9802,2.9768,2.9793,2.9907,2.9917,2.9929,2.9959,2.9795,2.9795,2.9795,2.9795,2.996,2.9968,2.9883,2.9835,2.9789,2.979,2.9689,2.9669,2.9654,2.9638,2.9663,2.9705,2.9718,2.972,2.9737,2.9765,2.9555,2.9554,2.9554,2.985,2.9855,2.977,2.9761,2.9723,2.9689,2.9594,2.9535,2.9526,2.9544,2.9625,2.9635,2.9703,2.9725,2.9741,2.9767,2.9819,0,0]}]]